Location: ?ejkovice
(49.0137°N, 14.3821°E)
Time: 21:04:25
(UTC+00:00)

AQUA - Pass Details

Date: 23 May 2024
Orbit: 693 x 697 km, 98.3° (Epoch: 21 June)

Event Time Altitude Azimuth Distance (km) Brightness Sun altitude
Rises 01:57:29 0° 12° (NNE) 3,087 8.3 -9.9°
Reaches altitude 10° 01:59:45 10° 10° (N) 2,165 7.3 -9.6°
Maximum altitude 02:04:27 67° 288° (WNW) 754 3.9 -9.1°
Drops below altitude 10° 02:09:07 10° 206° (SSW) 2,147 5.7 -8.5°
Enters shadow 02:09:15 - 206° (SSW) 2,198 5.8 -8.5°
